Weather History for Laredo, TX

Change the Weather History Date:

Thursday, November 8, 2012

  Actual Average Record
Temperature  
Mean Temperature 79 °F 69 °F  
Max Temperature 90 °F 79 °F 96 °F (1975)
Min Temperature 67 °F 58 °F 27 °F (1938)
Degree Days  
Heating Degree Days 0 2  
Month to date heating degree days 0 13  
Since 1 July heating degree days 13 25  
Cooling Degree Days 14 6  
Month to date cooling degree days 104 52  
Year to date cooling degree days 4975 4181  
Growing Degree Days 28 (Base 50)    
Moisture  
Dew Point 58 °F    
Average Humidity 54    
Maximum Humidity 78    
Minimum Humidity 31    
Precipitation  
Precipitation 0.00 in 0.04 in 1.80 in (1919)
Month to date precipitation 0.00 0.38  
Year to date precipitation 8.79 18.51  
Sea Level Pressure  
Sea Level Pressure 30.02 in    
Wind  
Wind Speed 15 mph (SSE)    
Max Wind Speed 24 mph    
Max Gust Speed 30 mph    
Visibility 10 miles    
Events      
T = Trace of Precipitation, MM = Missing Value Source: NWS Daily Summary

Daily Weather History Graph

Daily Weather History Graph

Search for Another Location

Airport:

Trip Planner

Search our weather history database for the weather conditions in past years. The results will help you decide how hot, cold, wet, or windy it might be!

Date:

Astronomy

Nov. 08, 2012 Rise Set
Actual Time 6:53 AM CST 5:49 PM CST
Civil Twilight 6:29 AM CST 6:13 PM CST
Nautical Twilight 6:01 AM CST 6:41 PM CST
Astronomical Twilight 5:33 AM CST 7:09 PM CST
Moon 1:20 AM CST (11/8) 2:04 PM CST (11/8)
Length of Visible Light 11h 44m
Length of Day
10h 55m
Waning Crescent, 32% of the Moon is Illuminated
Nov 8
Waning Crescent
Nov 13
New
Nov 20
First Quarter
Nov 28
Full
Dec 6
Last Quarter

Hourly Weather History & Observations

Time (CST) Temp. Heat Index Dew Point Humidity Pressure Visibility Wind Dir Wind Speed Gust Speed Precip Events Conditions
12:56 AM 71.6 °F - 55.4 °F 57% 30.09 in 10.0 mi SSE 12.7 mph - N/A   Clear
1:56 AM 70.0 °F - 56.8 °F 63% 30.06 in 10.0 mi SSE 13.8 mph - N/A   Clear
2:56 AM 68.9 °F - 57.9 °F 68% 30.05 in 10.0 mi SSE 12.7 mph - N/A   Clear
3:56 AM 68.0 °F - 57.9 °F 70% 30.04 in 10.0 mi South 11.5 mph - N/A   Clear
4:56 AM 68.0 °F - 57.9 °F 70% 30.04 in 10.0 mi South 9.2 mph - N/A   Clear
5:56 AM 68.0 °F - 59.0 °F 73% 30.05 in 10.0 mi South 11.5 mph - N/A   Clear
6:56 AM 66.9 °F - 59.0 °F 76% 30.06 in 10.0 mi SSE 10.4 mph - N/A   Clear
7:56 AM 68.9 °F - 59.9 °F 73% 30.08 in 10.0 mi SSE 9.2 mph - N/A   Clear
8:56 AM 73.9 °F - 61.0 °F 64% 30.09 in 10.0 mi SSE 13.8 mph - N/A   Clear
9:56 AM 79.0 °F - 61.9 °F 56% 30.09 in 10.0 mi South 16.1 mph - N/A   Clear
10:56 AM 81.9 °F 82.8 °F 61.9 °F 51% 30.08 in 10.0 mi South 15.0 mph 21.9 mph N/A   Clear
11:56 AM 84.9 °F 84.8 °F 59.9 °F 43% 30.04 in 10.0 mi South 17.3 mph - N/A   Clear
12:56 PM 88.0 °F 86.9 °F 57.9 °F 36% 30.00 in 10.0 mi SSE 17.3 mph 26.5 mph N/A   Clear
1:56 PM 90.0 °F 88.1 °F 55.9 °F 31% 29.96 in 10.0 mi SSE 18.4 mph 24.2 mph N/A   Clear
2:56 PM 90.0 °F 88.1 °F 55.9 °F 31% 29.94 in 10.0 mi South 16.1 mph - N/A   Clear
3:56 PM 88.9 °F 86.9 °F 54.9 °F 31% 29.94 in 10.0 mi SE 16.1 mph 25.3 mph N/A   Clear
4:56 PM 86.9 °F 85.5 °F 55.9 °F 35% 29.94 in 10.0 mi SE 19.6 mph - N/A   Clear
5:56 PM 84.9 °F 83.6 °F 54.9 °F 36% 29.95 in 10.0 mi SSE 15.0 mph - N/A   Clear
6:56 PM 81.9 °F 81.6 °F 56.8 °F 42% 29.96 in 10.0 mi ESE 12.7 mph - N/A   Clear
7:56 PM 79.9 °F - 57.9 °F 47% 29.98 in 10.0 mi SE 19.6 mph - N/A   Clear
8:56 PM 77.0 °F - 57.9 °F 52% 29.99 in 10.0 mi SE 19.6 mph 26.5 mph N/A   Clear
9:56 PM 74.8 °F - 59.0 °F 58% 30.00 in 10.0 mi SSE 15.0 mph - N/A   Clear
10:56 PM 73.9 °F - 61.9 °F 66% 30.00 in 10.0 mi SSE 18.4 mph 27.6 mph N/A   Clear
11:56 PM 72.9 °F - 61.9 °F 68% 30.00 in 10.0 mi SSE 19.6 mph 25.3 mph N/A   Clear